owner,sensor,date,latitude,longitude,vertical_datum,sea_water_temperature,qcFlag 
SCCF RECON,ioos:station:SCCF:53:1,2012-01-01T00:00:00Z,26.6493,-81.8810,2.11,20.79,2 
SCCF RECON,ioos:station:SCCF:53:1,2012-01-01T01:00:00Z,26.6493,-81.8810,2.11,20.69,2 
SCCF RECON,ioos:station:SCCF:53:1,2012-01-01T02:00:00Z,26.6493,-81.8810,2.11,20.75,2 
SCCF RECON,ioos:station:SCCF:53:1,2012-01-01T03:00:00Z,26.6493,-81.8810,2.11,20.74,2 
SCCF RECON,ioos:station:SCCF:53:1,2012-01-01T04:00:00Z,26.6493,-81.8810,2.11,20.82,2 
SCCF RECON,ioos:station:SCCF:53:1,2012-01-01T05:00:00Z,26.6493,-81.8810,2.11,20.85,2 
SCCF RECON,ioos:station:SCCF:53:1,2012-01-01T06:00:00Z,26.6493,-81.8810,2.11,20.73,2 
SCCF RECON,ioos:station:SCCF:53:1,2012-01-01T07:00:00Z,26.6493,-81.8810,2.11,20.73,2 
SCCF RECON,ioos:station:SCCF:53:1,2012-01-01T08:00:00Z,26.6493,-81.8810,2.11,20.73,2 
SCCF RECON,ioos:station:SCCF:53:1,2012-01-01T09:00:00Z,26.6493,-81.8810,2.11,20.73,2 
SCCF RECON,ioos:station:SCCF:53:1,2012-01-01T10:00:00Z,26.6493,-81.8810,2.11,20.76,2 
SCCF RECON,ioos:station:SCCF:53:1,2012-01-01T11:00:00Z,26.6493,-81.8810,2.11,20.76,2 
SCCF RECON,ioos:station:SCCF:53:1,2012-01-01T12:00:00Z,26.6493,-81.8810,2.11,20.75,2 
SCCF RECON,ioos:station:SCCF:53:1,2012-01-01T13:00:00Z,26.6493,-81.8810,2.11,20.74,2 
SCCF RECON,ioos:station:SCCF:53:1,2012-01-01T14:00:00Z,26.6493,-81.8810,2.11,20.74,2 
SCCF RECON,ioos:station:SCCF:53:1,2012-01-01T15:00:00Z,26.6493,-81.8810,2.11,20.78,2 
SCCF RECON,ioos:station:SCCF:53:1,2012-01-01T16:00:00Z,26.6493,-81.8810,2.11,20.82,2 
SCCF RECON,ioos:station:SCCF:53:1,2012-01-01T17:00:00Z,26.6493,-81.8810,2.11,20.83,2 
SCCF RECON,ioos:station:SCCF:53:1,2012-01-01T18:00:00Z,26.6493,-81.8810,2.11,20.85,2 
SCCF RECON,ioos:station:SCCF:53:1,2012-01-01T19:00:00Z,26.6493,-81.8810,2.11,20.87,2 
SCCF RECON,ioos:station:SCCF:53:1,2012-01-01T20:00:00Z,26.6493,-81.8810,2.11,20.88,2 
SCCF RECON,ioos:station:SCCF:53:1,2012-01-01T21:00:00Z,26.6493,-81.8810,2.11,20.9,2 
SCCF RECON,ioos:station:SCCF:53:1,2012-01-01T22:00:00Z,26.6493,-81.8810,2.11,20.92,2 
SCCF RECON,ioos:station:SCCF:53:1,2012-01-01T23:00:00Z,26.6493,-81.8810,2.11,20.94,2 
SCCF RECON,ioos:station:SCCF:53:1,2012-01-02T00:00:00Z,26.6493,-81.8810,2.11,20.98,2 
SCCF RECON,ioos:station:SCCF:53:1,2012-01-02T01:00:00Z,26.6493,-81.8810,2.11,20.95,2 
SCCF RECON,ioos:station:SCCF:53:1,2012-01-02T02:00:00Z,26.6493,-81.8810,2.11,20.97,2 
SCCF RECON,ioos:station:SCCF:53:1,2012-01-02T03:00:00Z,26.6493,-81.8810,2.11,21.01,2 
SCCF RECON,ioos:station:SCCF:53:1,2012-01-02T04:00:00Z,26.6493,-81.8810,2.11,21.19,2 
SCCF RECON,ioos:station:SCCF:53:1,2012-01-02T05:00:00Z,26.6493,-81.8810,2.11,21.28,2 
SCCF RECON,ioos:station:SCCF:53:1,2012-01-02T06:00:00Z,26.6493,-81.8810,2.11,21.08,2 
SCCF RECON,ioos:station:SCCF:53:1,2012-01-02T07:00:00Z,26.6493,-81.8810,2.11,21.06,2 
SCCF RECON,ioos:station:SCCF:53:1,2012-01-02T08:00:00Z,26.6493,-81.8810,2.11,21.08,2 
SCCF RECON,ioos:station:SCCF:53:1,2012-01-02T09:00:00Z,26.6493,-81.8810,2.11,21.16,2 
SCCF RECON,ioos:station:SCCF:53:1,2012-01-02T10:00:00Z,26.6493,-81.8810,2.11,21.18,2 
SCCF RECON,ioos:station:SCCF:53:1,2012-01-02T11:00:00Z,26.6493,-81.8810,2.11,21.06,2 
SCCF RECON,ioos:station:SCCF:53:1,2012-01-02T12:00:00Z,26.6493,-81.8810,2.11,21.1,2 
SCCF RECON,ioos:station:SCCF:53:1,2012-01-02T13:00:00Z,26.6493,-81.8810,2.11,21.11,2 
SCCF RECON,ioos:station:SCCF:53:1,2012-01-02T14:00:00Z,26.6493,-81.8810,2.11,21.1,2 
SCCF RECON,ioos:station:SCCF:53:1,2012-01-02T15:00:00Z,26.6493,-81.8810,2.11,21.06,2 
SCCF RECON,ioos:station:SCCF:53:1,2012-01-02T16:00:00Z,26.6493,-81.8810,2.11,21.11,2 
SCCF RECON,ioos:station:SCCF:53:1,2012-01-02T17:00:00Z,26.6493,-81.8810,2.11,21.18,2 
SCCF RECON,ioos:station:SCCF:53:1,2012-01-02T18:00:00Z,26.6493,-81.8810,2.11,21.15,2 
SCCF RECON,ioos:station:SCCF:53:1,2012-01-02T19:00:00Z,26.6493,-81.8810,2.11,21.16,2 
SCCF RECON,ioos:station:SCCF:53:1,2012-01-02T20:00:00Z,26.6493,-81.8810,2.11,21.18,2 
SCCF RECON,ioos:station:SCCF:53:1,2012-01-02T21:00:00Z,26.6493,-81.8810,2.11,-9999.0,2 
SCCF RECON,ioos:station:SCCF:53:1,2012-01-02T22:00:00Z,26.6493,-81.8810,2.11,21.29,2 
SCCF RECON,ioos:station:SCCF:53:1,2012-01-02T23:00:00Z,26.6493,-81.8810,2.11,21.19,2 
SCCF RECON,ioos:station:SCCF:53:1,2012-01-03T00:00:00Z,26.6493,-81.8810,2.11,-9999.0,2 
SCCF RECON,ioos:station:SCCF:53:1,2012-01-03T01:00:00Z,26.6493,-81.8810,2.11,20.89,2 
SCCF RECON,ioos:station:SCCF:53:1,2012-01-03T02:00:00Z,26.6493,-81.8810,2.11,-9999.0,2 
SCCF RECON,ioos:station:SCCF:53:1,2012-01-03T03:00:00Z,26.6493,-81.8810,2.11,20.36,2 
SCCF RECON,ioos:station:SCCF:53:1,2012-01-03T04:00:00Z,26.6493,-81.8810,2.11,-9999.0,2 
SCCF RECON,ioos:station:SCCF:53:1,2012-01-03T05:00:00Z,26.6493,-81.8810,2.11,20.11,2 
SCCF RECON,ioos:station:SCCF:53:1,2012-01-03T06:00:00Z,26.6493,-81.8810,2.11,-9999.0,2 
SCCF RECON,ioos:station:SCCF:53:1,2012-01-03T07:00:00Z,26.6493,-81.8810,2.11,-9999.0,2 
SCCF RECON,ioos:station:SCCF:53:1,2012-01-03T08:00:00Z,26.6493,-81.8810,2.11,21.06,2 
SCCF RECON,ioos:station:SCCF:53:1,2012-01-03T09:00:00Z,26.6493,-81.8810,2.11,-9999.0,2 
SCCF RECON,ioos:station:SCCF:53:1,2012-01-03T10:00:00Z,26.6493,-81.8810,2.11,21.1,2 
SCCF RECON,ioos:station:SCCF:53:1,2012-01-03T11:00:00Z,26.6493,-81.8810,2.11,-9999.0,2 
SCCF RECON,ioos:station:SCCF:53:1,2012-01-03T12:00:00Z,26.6493,-81.8810,2.11,19.63,2 
SCCF RECON,ioos:station:SCCF:53:1,2012-01-03T13:00:00Z,26.6493,-81.8810,2.11,-9999.0,2 
SCCF RECON,ioos:station:SCCF:53:1,2012-01-03T14:00:00Z,26.6493,-81.8810,2.11,-9999.0,2 
SCCF RECON,ioos:station:SCCF:53:1,2012-01-03T15:00:00Z,26.6493,-81.8810,2.11,-9999.0,2 
SCCF RECON,ioos:station:SCCF:53:1,2012-01-03T16:00:00Z,26.6493,-81.8810,2.11,-9999.0,2 
SCCF RECON,ioos:station:SCCF:53:1,2012-01-03T17:00:00Z,26.6493,-81.8810,2.11,-9999.0,2 
SCCF RECON,ioos:station:SCCF:53:1,2012-01-03T18:00:00Z,26.6493,-81.8810,2.11,-9999.0,2 
SCCF RECON,ioos:station:SCCF:53:1,2012-01-03T19:00:00Z,26.6493,-81.8810,2.11,-9999.0,2 
SCCF RECON,ioos:station:SCCF:53:1,2012-01-03T20:00:00Z,26.6493,-81.8810,2.11,-9999.0,2 
SCCF RECON,ioos:station:SCCF:53:1,2012-01-03T21:00:00Z,26.6493,-81.8810,2.11,-9999.0,2 
SCCF RECON,ioos:station:SCCF:53:1,2012-01-03T22:00:00Z,26.6493,-81.8810,2.11,-9999.0,2 
SCCF RECON,ioos:station:SCCF:53:1,2012-01-03T23:00:00Z,26.6493,-81.8810,2.11,-9999.0,2 
SCCF RECON,ioos:station:SCCF:53:1,2012-01-04T00:00:00Z,26.6493,-81.8810,2.11,-9999.0,2 
SCCF RECON,ioos:station:SCCF:53:1,2012-01-04T01:00:00Z,26.6493,-81.8810,2.11,-9999.0,2 
SCCF RECON,ioos:station:SCCF:53:1,2012-01-04T02:00:00Z,26.6493,-81.8810,2.11,-9999.0,2 
SCCF RECON,ioos:station:SCCF:53:1,2012-01-04T03:00:00Z,26.6493,-81.8810,2.11,-9999.0,2 
SCCF RECON,ioos:station:SCCF:53:1,2012-01-04T04:00:00Z,26.6493,-81.8810,2.11,-9999.0,2 
SCCF RECON,ioos:station:SCCF:53:1,2012-01-04T05:00:00Z,26.6493,-81.8810,2.11,-9999.0,2 
SCCF RECON,ioos:station:SCCF:53:1,2012-01-04T06:00:00Z,26.6493,-81.8810,2.11,-9999.0,2 
SCCF RECON,ioos:station:SCCF:53:1,2012-01-04T07:00:00Z,26.6493,-81.8810,2.11,-9999.0,2 
SCCF RECON,ioos:station:SCCF:53:1,2012-01-04T08:00:00Z,26.6493,-81.8810,2.11,-9999.0,2 
SCCF RECON,ioos:station:SCCF:53:1,2012-01-04T09:00:00Z,26.6493,-81.8810,2.11,-9999.0,2 
SCCF RECON,ioos:station:SCCF:53:1,2012-01-04T10:00:00Z,26.6493,-81.8810,2.11,-9999.0,2 
SCCF RECON,ioos:station:SCCF:53:1,2012-01-04T11:00:00Z,26.6493,-81.8810,2.11,-9999.0,2 
SCCF RECON,ioos:station:SCCF:53:1,2012-01-04T12:00:00Z,26.6493,-81.8810,2.11,-9999.0,2 
SCCF RECON,ioos:station:SCCF:53:1,2012-01-04T13:00:00Z,26.6493,-81.8810,2.11,-9999.0,2 
SCCF RECON,ioos:station:SCCF:53:1,2012-01-04T14:00:00Z,26.6493,-81.8810,2.11,-9999.0,2 
SCCF RECON,ioos:station:SCCF:53:1,2012-01-04T15:00:00Z,26.6493,-81.8810,2.11,-9999.0,2 
SCCF RECON,ioos:station:SCCF:53:1,2012-01-04T16:00:00Z,26.6493,-81.8810,2.11,-9999.0,2 
SCCF RECON,ioos:station:SCCF:53:1,2012-01-04T17:00:00Z,26.6493,-81.8810,2.11,-9999.0,2 
SCCF RECON,ioos:station:SCCF:53:1,2012-01-04T18:00:00Z,26.6493,-81.8810,2.11,-9999.0,2 
SCCF RECON,ioos:station:SCCF:53:1,2012-01-04T19:00:00Z,26.6493,-81.8810,2.11,-9999.0,2 
SCCF RECON,ioos:station:SCCF:53:1,2012-01-04T20:00:00Z,26.6493,-81.8810,2.11,-9999.0,2 
SCCF RECON,ioos:station:SCCF:53:1,2012-01-04T21:00:00Z,26.6493,-81.8810,2.11,-9999.0,2 
SCCF RECON,ioos:station:SCCF:53:1,2012-01-04T22:00:00Z,26.6493,-81.8810,2.11,-9999.0,2 
SCCF RECON,ioos:station:SCCF:53:1,2012-01-04T23:00:00Z,26.6493,-81.8810,2.11,-9999.0,2 
SCCF RECON,ioos:station:SCCF:53:1,2012-01-05T00:00:00Z,26.6493,-81.8810,2.11,-9999.0,2 
SCCF RECON,ioos:station:SCCF:53:1,2012-01-05T01:00:00Z,26.6493,-81.8810,2.11,-9999.0,2 
SCCF RECON,ioos:station:SCCF:53:1,2012-01-05T02:00:00Z,26.6493,-81.8810,2.11,-9999.0,2 
SCCF RECON,ioos:station:SCCF:53:1,2012-01-05T03:00:00Z,26.6493,-81.8810,2.11,-9999.0,2 
SCCF RECON,ioos:station:SCCF:53:1,2012-01-05T04:00:00Z,26.6493,-81.8810,2.11,-9999.0,2 
SCCF RECON,ioos:station:SCCF:53:1,2012-01-05T05:00:00Z,26.6493,-81.8810,2.11,-9999.0,2 
SCCF RECON,ioos:station:SCCF:53:1,2012-01-05T06:00:00Z,26.6493,-81.8810,2.11,-9999.0,2 
SCCF RECON,ioos:station:SCCF:53:1,2012-01-05T07:00:00Z,26.6493,-81.8810,2.11,-9999.0,2 
SCCF RECON,ioos:station:SCCF:53:1,2012-01-05T08:00:00Z,26.6493,-81.8810,2.11,-9999.0,2 
SCCF RECON,ioos:station:SCCF:53:1,2012-01-05T09:00:00Z,26.6493,-81.8810,2.11,-9999.0,2 
SCCF RECON,ioos:station:SCCF:53:1,2012-01-05T10:00:00Z,26.6493,-81.8810,2.11,-9999.0,2 
SCCF RECON,ioos:station:SCCF:53:1,2012-01-05T11:00:00Z,26.6493,-81.8810,2.11,-9999.0,2 
SCCF RECON,ioos:station:SCCF:53:1,2012-01-05T12:00:00Z,26.6493,-81.8810,2.11,-9999.0,2 
SCCF RECON,ioos:station:SCCF:53:1,2012-01-05T13:00:00Z,26.6493,-81.8810,2.11,-9999.0,2 
SCCF RECON,ioos:station:SCCF:53:1,2012-01-05T14:00:00Z,26.6493,-81.8810,2.11,-9999.0,2 
SCCF RECON,ioos:station:SCCF:53:1,2012-01-05T15:00:00Z,26.6493,-81.8810,2.11,-9999.0,2 
SCCF RECON,ioos:station:SCCF:53:1,2012-01-05T16:00:00Z,26.6493,-81.8810,2.11,-9999.0,2 
SCCF RECON,ioos:station:SCCF:53:1,2012-01-05T17:00:00Z,26.6493,-81.8810,2.11,-9999.0,2 
SCCF RECON,ioos:station:SCCF:53:1,2012-01-05T18:00:00Z,26.6493,-81.8810,2.11,-9999.0,2 
SCCF RECON,ioos:station:SCCF:53:1,2012-01-05T19:00:00Z,26.6493,-81.8810,2.11,-9999.0,2 
SCCF RECON,ioos:station:SCCF:53:1,2012-01-05T20:00:00Z,26.6493,-81.8810,2.11,-9999.0,2 
SCCF RECON,ioos:station:SCCF:53:1,2012-01-05T21:00:00Z,26.6493,-81.8810,2.11,-9999.0,2 
SCCF RECON,ioos:station:SCCF:53:1,2012-01-05T22:00:00Z,26.6493,-81.8810,2.11,-9999.0,2 
SCCF RECON,ioos:station:SCCF:53:1,2012-01-05T23:00:00Z,26.6493,-81.8810,2.11,-9999.0,2 
SCCF RECON,ioos:station:SCCF:53:1,2012-01-12T20:00:00Z,26.6493,-81.8810,2.11,19.81,2 
SCCF RECON,ioos:station:SCCF:53:1,2012-01-12T21:00:00Z,26.6493,-81.8810,2.11,19.63,2 
SCCF RECON,ioos:station:SCCF:53:1,2012-01-12T22:00:00Z,26.6493,-81.8810,2.11,20.32,2 
SCCF RECON,ioos:station:SCCF:53:1,2012-01-12T23:00:00Z,26.6493,-81.8810,2.11,20.99,2 
SCCF RECON,ioos:station:SCCF:53:1,2012-01-13T00:00:00Z,26.6493,-81.8810,2.11,20.97,2 
SCCF RECON,ioos:station:SCCF:53:1,2012-01-13T01:00:00Z,26.6493,-81.8810,2.11,20.8,2 
SCCF RECON,ioos:station:SCCF:53:1,2012-01-13T02:00:00Z,26.6493,-81.8810,2.11,20.66,2 
SCCF RECON,ioos:station:SCCF:53:1,2012-01-13T03:00:00Z,26.6493,-81.8810,2.11,20.67,2 
SCCF RECON,ioos:station:SCCF:53:1,2012-01-13T04:00:00Z,26.6493,-81.8810,2.11,20.55,2 
SCCF RECON,ioos:station:SCCF:53:1,2012-01-13T05:00:00Z,26.6493,-81.8810,2.11,20.44,2 
SCCF RECON,ioos:station:SCCF:53:1,2012-01-13T06:00:00Z,26.6493,-81.8810,2.11,20.21,2 
SCCF RECON,ioos:station:SCCF:53:1,2012-01-13T07:00:00Z,26.6493,-81.8810,2.11,20.25,2 
SCCF RECON,ioos:station:SCCF:53:1,2012-01-13T08:00:00Z,26.6493,-81.8810,2.11,20.03,2 
SCCF RECON,ioos:station:SCCF:53:1,2012-01-13T09:00:00Z,26.6493,-81.8810,2.11,19.65,2 
SCCF RECON,ioos:station:SCCF:53:1,2012-01-13T10:00:00Z,26.6493,-81.8810,2.11,19.85,2 
SCCF RECON,ioos:station:SCCF:53:1,2012-01-13T11:00:00Z,26.6493,-81.8810,2.11,19.97,2 
SCCF RECON,ioos:station:SCCF:53:1,2012-01-13T12:00:00Z,26.6493,-81.8810,2.11,20.03,2 
SCCF RECON,ioos:station:SCCF:53:1,2012-01-13T13:00:00Z,26.6493,-81.8810,2.11,20.11,2 
SCCF RECON,ioos:station:SCCF:53:1,2012-01-13T14:00:00Z,26.6493,-81.8810,2.11,20.08,2 
SCCF RECON,ioos:station:SCCF:53:1,2012-01-13T15:00:00Z,26.6493,-81.8810,2.11,20.02,2 
SCCF RECON,ioos:station:SCCF:53:1,2012-01-13T16:00:00Z,26.6493,-81.8810,2.11,20.05,2 
SCCF RECON,ioos:station:SCCF:53:1,2012-01-13T17:00:00Z,26.6493,-81.8810,2.11,20.06,2 
SCCF RECON,ioos:station:SCCF:53:1,2012-01-13T18:00:00Z,26.6493,-81.8810,2.11,19.96,2 
SCCF RECON,ioos:station:SCCF:53:1,2012-01-13T19:00:00Z,26.6493,-81.8810,2.11,19.99,2 
SCCF RECON,ioos:station:SCCF:53:1,2012-01-13T20:00:00Z,26.6493,-81.8810,2.11,19.96,2 
SCCF RECON,ioos:station:SCCF:53:1,2012-01-13T21:00:00Z,26.6493,-81.8810,2.11,20.02,2 
SCCF RECON,ioos:station:SCCF:53:1,2012-01-13T22:00:00Z,26.6493,-81.8810,2.11,19.94,2 
SCCF RECON,ioos:station:SCCF:53:1,2012-01-13T23:00:00Z,26.6493,-81.8810,2.11,19.96,2 
SCCF RECON,ioos:station:SCCF:53:1,2012-01-14T00:00:00Z,26.6493,-81.8810,2.11,20.05,2 
SCCF RECON,ioos:station:SCCF:53:1,2012-01-14T01:00:00Z,26.6493,-81.8810,2.11,20.33,2 
SCCF RECON,ioos:station:SCCF:53:1,2012-01-14T02:00:00Z,26.6493,-81.8810,2.11,20.32,2 
SCCF RECON,ioos:station:SCCF:53:1,2012-01-14T03:00:00Z,26.6493,-81.8810,2.11,20.15,2 
SCCF RECON,ioos:station:SCCF:53:1,2012-01-14T04:00:00Z,26.6493,-81.8810,2.11,20.0,2 
SCCF RECON,ioos:station:SCCF:53:1,2012-01-14T05:00:00Z,26.6493,-81.8810,2.11,20.05,2 
SCCF RECON,ioos:station:SCCF:53:1,2012-01-14T06:00:00Z,26.6493,-81.8810,2.11,19.97,2 
SCCF RECON,ioos:station:SCCF:53:1,2012-01-14T07:00:00Z,26.6493,-81.8810,2.11,19.98,2 
SCCF RECON,ioos:station:SCCF:53:1,2012-01-14T08:00:00Z,26.6493,-81.8810,2.11,19.85,2 
SCCF RECON,ioos:station:SCCF:53:1,2012-01-14T09:00:00Z,26.6493,-81.8810,2.11,19.85,2 
SCCF RECON,ioos:station:SCCF:53:1,2012-01-14T10:00:00Z,26.6493,-81.8810,2.11,19.79,2 
SCCF RECON,ioos:station:SCCF:53:1,2012-01-14T11:00:00Z,26.6493,-81.8810,2.11,19.65,2 
SCCF RECON,ioos:station:SCCF:53:1,2012-01-14T12:00:00Z,26.6493,-81.8810,2.11,19.71,2 
SCCF RECON,ioos:station:SCCF:53:1,2012-01-14T13:00:00Z,26.6493,-81.8810,2.11,18.69,2 
SCCF RECON,ioos:station:SCCF:53:1,2012-01-14T14:00:00Z,26.6493,-81.8810,2.11,19.0,2 
SCCF RECON,ioos:station:SCCF:53:1,2012-01-14T15:00:00Z,26.6493,-81.8810,2.11,18.74,2 
SCCF RECON,ioos:station:SCCF:53:1,2012-01-14T16:00:00Z,26.6493,-81.8810,2.11,18.68,2 
SCCF RECON,ioos:station:SCCF:53:1,2012-01-14T17:00:00Z,26.6493,-81.8810,2.11,18.65,2 
SCCF RECON,ioos:station:SCCF:53:1,2012-01-14T18:00:00Z,26.6493,-81.8810,2.11,18.76,2 
SCCF RECON,ioos:station:SCCF:53:1,2012-01-14T19:00:00Z,26.6493,-81.8810,2.11,18.79,2 
SCCF RECON,ioos:station:SCCF:53:1,2012-01-14T20:00:00Z,26.6493,-81.8810,2.11,18.78,2 
SCCF RECON,ioos:station:SCCF:53:1,2012-01-14T21:00:00Z,26.6493,-81.8810,2.11,18.64,2 
SCCF RECON,ioos:station:SCCF:53:1,2012-01-14T22:00:00Z,26.6493,-81.8810,2.11,18.49,2 
SCCF RECON,ioos:station:SCCF:53:1,2012-01-14T23:00:00Z,26.6493,-81.8810,2.11,18.33,2 
SCCF RECON,ioos:station:SCCF:53:1,2012-01-15T00:00:00Z,26.6493,-81.8810,2.11,18.15,2 
SCCF RECON,ioos:station:SCCF:53:1,2012-01-15T01:00:00Z,26.6493,-81.8810,2.11,18.11,2 
SCCF RECON,ioos:station:SCCF:53:1,2012-01-15T02:00:00Z,26.6493,-81.8810,2.11,18.12,2 
SCCF RECON,ioos:station:SCCF:53:1,2012-01-15T03:00:00Z,26.6493,-81.8810,2.11,17.9,2 
SCCF RECON,ioos:station:SCCF:53:1,2012-01-15T04:00:00Z,26.6493,-81.8810,2.11,17.95,2 
SCCF RECON,ioos:station:SCCF:53:1,2012-01-15T05:00:00Z,26.6493,-81.8810,2.11,17.78,2 
SCCF RECON,ioos:station:SCCF:53:1,2012-01-15T06:00:00Z,26.6493,-81.8810,2.11,17.7,2 
SCCF RECON,ioos:station:SCCF:53:1,2012-01-15T07:00:00Z,26.6493,-81.8810,2.11,17.59,2 
SCCF RECON,ioos:station:SCCF:53:1,2012-01-15T08:00:00Z,26.6493,-81.8810,2.11,17.99,2 
SCCF RECON,ioos:station:SCCF:53:1,2012-01-15T09:00:00Z,26.6493,-81.8810,2.11,17.78,2 
SCCF RECON,ioos:station:SCCF:53:1,2012-01-15T10:00:00Z,26.6493,-81.8810,2.11,17.73,2 
SCCF RECON,ioos:station:SCCF:53:1,2012-01-15T11:00:00Z,26.6493,-81.8810,2.11,17.71,2 
SCCF RECON,ioos:station:SCCF:53:1,2012-01-15T12:00:00Z,26.6493,-81.8810,2.11,17.58,2 
SCCF RECON,ioos:station:SCCF:53:1,2012-01-15T13:00:00Z,26.6493,-81.8810,2.11,17.48,2 
SCCF RECON,ioos:station:SCCF:53:1,2012-01-15T14:00:00Z,26.6493,-81.8810,2.11,17.35,2 
SCCF RECON,ioos:station:SCCF:53:1,2012-01-15T15:00:00Z,26.6493,-81.8810,2.11,17.5,2 
SCCF RECON,ioos:station:SCCF:53:1,2012-01-15T16:00:00Z,26.6493,-81.8810,2.11,17.6,2 
SCCF RECON,ioos:station:SCCF:53:1,2012-01-15T17:00:00Z,26.6493,-81.8810,2.11,17.36,2 
SCCF RECON,ioos:station:SCCF:53:1,2012-01-15T18:00:00Z,26.6493,-81.8810,2.11,17.29,2 
SCCF RECON,ioos:station:SCCF:53:1,2012-01-15T19:00:00Z,26.6493,-81.8810,2.11,17.4,2 
SCCF RECON,ioos:station:SCCF:53:1,2012-01-15T20:00:00Z,26.6493,-81.8810,2.11,17.45,2 
SCCF RECON,ioos:station:SCCF:53:1,2012-01-15T21:00:00Z,26.6493,-81.8810,2.11,17.48,2 
SCCF RECON,ioos:station:SCCF:53:1,2012-01-15T22:00:00Z,26.6493,-81.8810,2.11,17.52,2 
SCCF RECON,ioos:station:SCCF:53:1,2012-01-15T23:00:00Z,26.6493,-81.8810,2.11,17.51,2 
SCCF RECON,ioos:station:SCCF:53:1,2012-01-16T00:00:00Z,26.6493,-81.8810,2.11,17.41,2 
SCCF RECON,ioos:station:SCCF:53:1,2012-01-16T01:00:00Z,26.6493,-81.8810,2.11,17.3,2 
SCCF RECON,ioos:station:SCCF:53:1,2012-01-16T02:00:00Z,26.6493,-81.8810,2.11,17.21,2 
SCCF RECON,ioos:station:SCCF:53:1,2012-01-16T03:00:00Z,26.6493,-81.8810,2.11,17.26,2 
SCCF RECON,ioos:station:SCCF:53:1,2012-01-16T04:00:00Z,26.6493,-81.8810,2.11,17.18,2 
SCCF RECON,ioos:station:SCCF:53:1,2012-01-16T05:00:00Z,26.6493,-81.8810,2.11,17.28,2 
SCCF RECON,ioos:station:SCCF:53:1,2012-01-16T06:00:00Z,26.6493,-81.8810,2.11,17.23,2 
SCCF RECON,ioos:station:SCCF:53:1,2012-01-16T07:00:00Z,26.6493,-81.8810,2.11,17.25,2 
SCCF RECON,ioos:station:SCCF:53:1,2012-01-16T08:00:00Z,26.6493,-81.8810,2.11,16.89,2 
SCCF RECON,ioos:station:SCCF:53:1,2012-01-16T09:00:00Z,26.6493,-81.8810,2.11,16.72,2 
SCCF RECON,ioos:station:SCCF:53:1,2012-01-16T10:00:00Z,26.6493,-81.8810,2.11,16.74,2 
SCCF RECON,ioos:station:SCCF:53:1,2012-01-16T11:00:00Z,26.6493,-81.8810,2.11,16.72,2 
SCCF RECON,ioos:station:SCCF:53:1,2012-01-16T12:00:00Z,26.6493,-81.8810,2.11,16.57,2 
SCCF RECON,ioos:station:SCCF:53:1,2012-01-16T13:00:00Z,26.6493,-81.8810,2.11,16.39,2 
SCCF RECON,ioos:station:SCCF:53:1,2012-01-16T14:00:00Z,26.6493,-81.8810,2.11,16.39,2 
SCCF RECON,ioos:station:SCCF:53:1,2012-01-16T15:00:00Z,26.6493,-81.8810,2.11,16.16,2 
SCCF RECON,ioos:station:SCCF:53:1,2012-01-16T16:00:00Z,26.6493,-81.8810,2.11,16.22,2 
SCCF RECON,ioos:station:SCCF:53:1,2012-01-16T17:00:00Z,26.6493,-81.8810,2.11,16.49,2 
SCCF RECON,ioos:station:SCCF:53:1,2012-01-16T18:00:00Z,26.6493,-81.8810,2.11,16.77,2 
SCCF RECON,ioos:station:SCCF:53:1,2012-01-16T19:00:00Z,26.6493,-81.8810,2.11,16.91,2 
SCCF RECON,ioos:station:SCCF:53:1,2012-01-16T20:00:00Z,26.6493,-81.8810,2.11,17.01,2 
SCCF RECON,ioos:station:SCCF:53:1,2012-01-16T21:00:00Z,26.6493,-81.8810,2.11,17.22,2 
SCCF RECON,ioos:station:SCCF:53:1,2012-01-16T22:00:00Z,26.6493,-81.8810,2.11,17.33,2 
SCCF RECON,ioos:station:SCCF:53:1,2012-01-16T23:00:00Z,26.6493,-81.8810,2.11,17.23,2 
SCCF RECON,ioos:station:SCCF:53:1,2012-01-17T00:00:00Z,26.6493,-81.8810,2.11,17.13,2 
SCCF RECON,ioos:station:SCCF:53:1,2012-01-17T01:00:00Z,26.6493,-81.8810,2.11,17.15,2 
SCCF RECON,ioos:station:SCCF:53:1,2012-01-17T02:00:00Z,26.6493,-81.8810,2.11,17.08,2 
SCCF RECON,ioos:station:SCCF:53:1,2012-01-17T03:00:00Z,26.6493,-81.8810,2.11,17.14,2 
SCCF RECON,ioos:station:SCCF:53:1,2012-01-17T04:00:00Z,26.6493,-81.8810,2.11,17.13,2 
SCCF RECON,ioos:station:SCCF:53:1,2012-01-17T05:00:00Z,26.6493,-81.8810,2.11,17.07,2 
SCCF RECON,ioos:station:SCCF:53:1,2012-01-17T06:00:00Z,26.6493,-81.8810,2.11,17.13,2 
SCCF RECON,ioos:station:SCCF:53:1,2012-01-17T07:00:00Z,26.6493,-81.8810,2.11,17.16,2 
SCCF RECON,ioos:station:SCCF:53:1,2012-01-17T08:00:00Z,26.6493,-81.8810,2.11,17.17,2 
SCCF RECON,ioos:station:SCCF:53:1,2012-01-17T09:00:00Z,26.6493,-81.8810,2.11,17.18,2 
SCCF RECON,ioos:station:SCCF:53:1,2012-01-17T10:00:00Z,26.6493,-81.8810,2.11,17.16,2 
SCCF RECON,ioos:station:SCCF:53:1,2012-01-17T11:00:00Z,26.6493,-81.8810,2.11,17.12,2 
SCCF RECON,ioos:station:SCCF:53:1,2012-01-17T12:00:00Z,26.6493,-81.8810,2.11,17.15,2 
SCCF RECON,ioos:station:SCCF:53:1,2012-01-17T13:00:00Z,26.6493,-81.8810,2.11,17.13,2 
SCCF RECON,ioos:station:SCCF:53:1,2012-01-17T14:00:00Z,26.6493,-81.8810,2.11,16.93,2 
SCCF RECON,ioos:station:SCCF:53:1,2012-01-17T15:00:00Z,26.6493,-81.8810,2.11,16.88,2 
SCCF RECON,ioos:station:SCCF:53:1,2012-01-17T16:00:00Z,26.6493,-81.8810,2.11,16.61,2 
SCCF RECON,ioos:station:SCCF:53:1,2012-01-17T17:00:00Z,26.6493,-81.8810,2.11,16.86,2 
SCCF RECON,ioos:station:SCCF:53:1,2012-01-17T18:00:00Z,26.6493,-81.8810,2.11,17.04,2 
SCCF RECON,ioos:station:SCCF:53:1,2012-01-17T19:00:00Z,26.6493,-81.8810,2.11,17.11,2 
SCCF RECON,ioos:station:SCCF:53:1,2012-01-17T20:00:00Z,26.6493,-81.8810,2.11,17.05,2 
SCCF RECON,ioos:station:SCCF:53:1,2012-01-17T21:00:00Z,26.6493,-81.8810,2.11,17.08,2 
SCCF RECON,ioos:station:SCCF:53:1,2012-01-17T22:00:00Z,26.6493,-81.8810,2.11,17.86,2 
SCCF RECON,ioos:station:SCCF:53:1,2012-01-17T23:00:00Z,26.6493,-81.8810,2.11,17.96,2 
SCCF RECON,ioos:station:SCCF:53:1,2012-01-18T00:00:00Z,26.6493,-81.8810,2.11,18.58,2 
SCCF RECON,ioos:station:SCCF:53:1,2012-01-18T01:00:00Z,26.6493,-81.8810,2.11,18.04,2 
SCCF RECON,ioos:station:SCCF:53:1,2012-01-18T02:00:00Z,26.6493,-81.8810,2.11,17.8,2 
SCCF RECON,ioos:station:SCCF:53:1,2012-01-18T03:00:00Z,26.6493,-81.8810,2.11,17.78,2 
SCCF RECON,ioos:station:SCCF:53:1,2012-01-18T04:00:00Z,26.6493,-81.8810,2.11,17.86,2 
SCCF RECON,ioos:station:SCCF:53:1,2012-01-18T05:00:00Z,26.6493,-81.8810,2.11,18.16,2 
SCCF RECON,ioos:station:SCCF:53:1,2012-01-18T06:00:00Z,26.6493,-81.8810,2.11,17.99,2 
SCCF RECON,ioos:station:SCCF:53:1,2012-01-18T07:00:00Z,26.6493,-81.8810,2.11,17.96,2 
SCCF RECON,ioos:station:SCCF:53:1,2012-01-18T08:00:00Z,26.6493,-81.8810,2.11,17.98,2 
SCCF RECON,ioos:station:SCCF:53:1,2012-01-18T09:00:00Z,26.6493,-81.8810,2.11,17.93,2 
SCCF RECON,ioos:station:SCCF:53:1,2012-01-18T10:00:00Z,26.6493,-81.8810,2.11,18.0,2 
SCCF RECON,ioos:station:SCCF:53:1,2012-01-18T11:00:00Z,26.6493,-81.8810,2.11,17.98,2 
SCCF RECON,ioos:station:SCCF:53:1,2012-01-18T12:00:00Z,26.6493,-81.8810,2.11,18.03,2 
SCCF RECON,ioos:station:SCCF:53:1,2012-01-18T13:00:00Z,26.6493,-81.8810,2.11,17.98,2 
SCCF RECON,ioos:station:SCCF:53:1,2012-01-18T14:00:00Z,26.6493,-81.8810,2.11,18.02,2 
SCCF RECON,ioos:station:SCCF:53:1,2012-01-18T15:00:00Z,26.6493,-81.8810,2.11,18.11,2 
SCCF RECON,ioos:station:SCCF:53:1,2012-01-18T16:00:00Z,26.6493,-81.8810,2.11,17.96,2 
SCCF RECON,ioos:station:SCCF:53:1,2012-01-18T17:00:00Z,26.6493,-81.8810,2.11,18.09,2 
SCCF RECON,ioos:station:SCCF:53:1,2012-01-18T18:00:00Z,26.6493,-81.8810,2.11,18.08,2 
SCCF RECON,ioos:station:SCCF:53:1,2012-01-18T19:00:00Z,26.6493,-81.8810,2.11,18.09,2 
SCCF RECON,ioos:station:SCCF:53:1,2012-01-18T20:00:00Z,26.6493,-81.8810,2.11,18.15,2 
SCCF RECON,ioos:station:SCCF:53:1,2012-01-18T21:00:00Z,26.6493,-81.8810,2.11,18.19,2 
SCCF RECON,ioos:station:SCCF:53:1,2012-01-18T22:00:00Z,26.6493,-81.8810,2.11,18.42,2 
SCCF RECON,ioos:station:SCCF:53:1,2012-01-18T23:00:00Z,26.6493,-81.8810,2.11,18.21,2 
SCCF RECON,ioos:station:SCCF:53:1,2012-01-19T00:00:00Z,26.6493,-81.8810,2.11,18.46,2 
SCCF RECON,ioos:station:SCCF:53:1,2012-01-19T01:00:00Z,26.6493,-81.8810,2.11,18.28,2 
SCCF RECON,ioos:station:SCCF:53:1,2012-01-19T02:00:00Z,26.6493,-81.8810,2.11,18.45,2 
SCCF RECON,ioos:station:SCCF:53:1,2012-01-19T03:00:00Z,26.6493,-81.8810,2.11,18.61,2 
SCCF RECON,ioos:station:SCCF:53:1,2012-01-19T04:00:00Z,26.6493,-81.8810,2.11,18.65,2 
SCCF RECON,ioos:station:SCCF:53:1,2012-01-19T05:00:00Z,26.6493,-81.8810,2.11,18.7,2 
SCCF RECON,ioos:station:SCCF:53:1,2012-01-19T06:00:00Z,26.6493,-81.8810,2.11,18.92,2 
SCCF RECON,ioos:station:SCCF:53:1,2012-01-19T07:00:00Z,26.6493,-81.8810,2.11,18.45,2 